Regional Weather Roundup
Issued by NWS Sioux Falls, SD

Home | Current Version | Previous Version | Text Only | Print | Product List | Glossary On
Versions: 1 2 3 4 5 6 7 8 9 10 11 12 13 14 15 16 17 18 19 20 21 22 23 24 25 26 27 28 29 30 31 32 33 34 35 36 37 38 39 40 41 42 43 44 45 46 47 48 49 50
177
ASUS43 KFSD 252010
RWRFSD

WEATHER ROUNDUP FOR SE SOUTH DAKOTA/SW MINNESOTA/NW IOWA
NATIONAL WEATHER SERVICE SIOUX FALLS SD
300 PM CDT TUE APR 25 2017

NOTE: "FAIR" INDICATES FEW OR NO CLOUDS BELOW 12,000 FEET WITH NO
SIGNIFICANT WEATHER AND OR OBSTRUCTIONS TO VISIBILITY.


SDZ038>040-050-052>070-252100-
SOUTHEAST SOUTH DAKOTA

CITY           SKY/WX    TMP DP  RH WIND       PRES   REMARKS
BROOKINGS      CLOUDY    37  34  89 N20       29.62R
CHAMBERLAIN    CLOUDY    40  34  77 NW16G26   29.71S
HURON          CLOUDY    38  32  79 N23G29    29.69R
MADISON        CLOUDY    39  39 100 N20       29.60S
MITCHELL       CLOUDY    40  33  76 N17G26    29.69R
SIOUX FALLS    RAIN      41  41 100 NE10      29.61R FOG
WINNER         LGT RAIN  38  33  82 N16       29.72R
YANKTON        CLOUDY    43  37  81 NW16G22   29.61S
$$

MNZ071-072-080-081-089-090-097-098-252100-
SOUTHWEST MINNESOTA

CITY           SKY/WX    TMP DP  RH WIND       PRES   REMARKS
FAIRMONT       LGT RAIN  43  42  97 NE8       29.56R
JACKSON        DRIZZLE   41  41 100 VRB10     29.56R
LUVERNE        DRIZZLE   37  36  93 N10       29.58R
MARSHALL       RAIN      39  37  92 N20       29.60S
MONTEVIDEO     CLOUDY    45  39  81 N16       29.59F
PIPESTONE      RAIN      39  34  81 N12G20    29.57R
REDWOOD FALLS  LGT RAIN  46  41  82 NW10      29.55F
TRACY          RAIN      40  39  97 N15       29.59R
WINDOM         LGT RAIN  41  39  93 N14G21    29.56R
WORTHINGTON    LGT RAIN  40  39  97 N16       29.56R
$$

IAZ001>003-012>014-020>022-031-032-NEZ013-014-SDZ071-252100-
NORTHWEST IOWA

CITY           SKY/WX    TMP DP  RH WIND       PRES   REMARKS
CHEROKEE       CLOUDY    45  44  95 N7        29.56R
DENISON        CLOUDY    48  45  87 NE15G21   29.51R
ESTHERVILLE    CLOUDY    42  42 100 NE12      29.55R
LE MARS        CLOUDY    43  41  93 N10G17    29.58R
ORANGE CITY    CLOUDY    41  39  93 N7        29.57R
SHELDON        CLOUDY    43  39  87 N12       29.56S
SIOUX CITY     LGT RAIN  44  42  93 N12       29.56S
SPENCER        LGT RAIN  44  41  89 NE8       29.57R
STORM LAKE     PTSUNNY   46  43  87 NE13      29.54S
$$

ABBREVIATIONS USED IN REMARKS
   TC - TEMPERATURE IN CELSIUS
  WCI - WIND CHILL INDEX
   HX - HEAT INDEX
  VSB - VISIBILITY





USA.gov is the U.S. government's official web portal to all federal, state and local government web resources and services.